TimeEST,TemperatureF,Dew PointF,Humidity,Sea Level PressureIn,VisibilityMPH,Wind Direction,Wind SpeedMPH,Gust SpeedMPH,PrecipitationIn,Events,Conditions,WindDirDegrees,DateUTC
12:56 AM,32.0,28.9,88,30.27,6.0,Calm,Calm,-,N/A,,Clear,0,2013-01-04 05:56:00
1:56 AM,30.9,28.0,89,30.27,7.0,Calm,Calm,-,N/A,,Clear,0,2013-01-04 06:56:00
2:56 AM,30.0,27.0,88,30.28,6.0,West,3.5,-,N/A,,Clear,280,2013-01-04 07:56:00
3:56 AM,30.9,27.0,85,30.29,7.0,WNW,3.5,-,N/A,,Clear,290,2013-01-04 08:56:00
4:56 AM,28.9,26.1,89,30.28,5.0,Calm,Calm,-,N/A,,Clear,0,2013-01-04 09:56:00
5:56 AM,28.9,26.1,89,30.30,5.0,Calm,Calm,-,N/A,,Clear,0,2013-01-04 10:56:00
6:56 AM,28.9,25.0,85,30.31,6.0,Calm,Calm,-,N/A,,Clear,0,2013-01-04 11:56:00
7:56 AM,30.0,26.1,85,30.32,6.0,WNW,3.5,-,N/A,,Clear,290,2013-01-04 12:56:00
8:56 AM,37.0,30.9,79,30.34,6.0,West,3.5,-,N/A,,Haze,280,2013-01-04 13:56:00
9:56 AM,43.0,27.0,53,30.34,10.0,NNW,6.9,-,N/A,,Clear,340,2013-01-04 14:56:00
10:56 AM,46.9,27.0,46,30.33,10.0,NW,9.2,-,N/A,,Clear,310,2013-01-04 15:56:00
11:56 AM,48.9,24.1,38,30.30,10.0,NW,10.4,-,N/A,,Clear,310,2013-01-04 16:56:00
12:56 PM,51.1,25.0,36,30.26,10.0,WNW,12.7,-,N/A,,Clear,290,2013-01-04 17:56:00
1:56 PM,52.0,25.0,35,30.24,10.0,WNW,9.2,-,N/A,,Clear,290,2013-01-04 18:56:00
2:56 PM,52.0,25.0,35,30.23,10.0,West,11.5,-,N/A,,Clear,270,2013-01-04 19:56:00
3:56 PM,52.0,25.0,35,30.23,10.0,WNW,12.7,-,N/A,,Clear,290,2013-01-04 20:56:00
4:56 PM,48.9,27.0,43,30.22,10.0,WSW,4.6,-,N/A,,Clear,250,2013-01-04 21:56:00
5:56 PM,44.1,28.9,55,30.23,10.0,Calm,Calm,-,N/A,,Clear,0,2013-01-04 22:56:00
6:56 PM,39.0,30.9,73,30.26,10.0,WSW,3.5,-,N/A,,Clear,240,2013-01-04 23:56:00
7:56 PM,39.0,30.0,70,30.27,10.0,WSW,5.8,-,N/A,,Partly Cloudy,240,2013-01-05 00:56:00
8:56 PM,39.9,30.0,68,30.30,10.0,West,6.9,-,N/A,,Clear,270,2013-01-05 01:56:00
9:56 PM,43.0,30.9,62,30.30,10.0,West,6.9,-,N/A,,Overcast,270,2013-01-05 02:56:00
10:56 PM,39.9,28.9,65,30.30,10.0,West,8.1,-,N/A,,Scattered Clouds,270,2013-01-05 03:56:00
11:56 PM,35.1,28.0,76,30.30,10.0,West,6.9,-,N/A,,Clear,270,2013-01-05 04:56:00